Starlink 5711

operational
NORAD ID: 55471 Int'l Des: 2023-015 Owner: SPXS Country: US Constellation: starlink
LEOCIRCULAR

Starlink 5711について

説明を読み込み中...

リアルタイム位置

3D地球を読み込み中...

次回通過

高度履歴

Altitude vs Time

uPlot chart will show altitude changes over time

軌道要素

1 55471U 23015Y 26063.15000951 .00000653 00000-0 63432-4 0 9997
2 55471 43.0061 355.8326 0001239 274.7289 85.3412 15.02535395169922
Epoch: Mar 4, 2026 • Age: 21 hours

現在のステータス

高度 561.4 km
速度 7.58 km/s
衛星直下点 -14.62°S, 142.72°W
打ち上げ日 Feb 2, 2023
運用期間 3 years
タイプ internet

技術仕様

分類 Payload
質量 305.00 kg
乾燥質量 290.00 kg
総質量 305.00 kg
長さ 0.20 m
直径 2.80 m
スパン 9.00 m
形状 Box + pan
製造者 SPXS
バスタイプ Starlink
フェーズステータス In Orbit
所有者/国 SPXS/US

大規模コンステレーション

Loading constellations...